status,avgMeasuredTime,avgSpeed,extID,medianMeasuredTime,TIMESTAMP,vehicleCount,_id,REPORT_ID
OK,117,41,666,117,2014-08-01T07:50:00,10,20746218,182766
OK,128,37,666,128,2014-08-01T07:55:00,10,20746390,182766
OK,128,37,666,128,2014-08-01T08:00:00,14,20746721,182766
OK,119,40,666,119,2014-08-01T08:05:00,9,20747170,182766
OK,111,43,666,111,2014-08-01T08:10:00,5,20747543,182766
OK,115,41,666,115,2014-08-01T08:15:00,5,20747992,182766
OK,129,37,666,129,2014-08-01T08:20:00,5,20748441,182766
OK,94,51,666,94,2014-08-01T08:25:00,3,20748890,182766
OK,139,34,666,139,2014-08-01T08:30:00,6,20749339,182766
OK,134,35,666,134,2014-08-01T08:35:00,13,20749788,182766
OK,116,41,666,116,2014-08-01T08:40:00,12,20750237,182766
OK,127,37,666,127,2014-08-01T08:45:00,11,20750686,182766
OK,136,35,666,136,2014-08-01T08:50:00,8,20751135,182766
OK,190,25,666,190,2014-08-01T08:55:00,2,20751584,182766
OK,125,38,666,125,2014-08-01T09:00:00,7,20752033,182766
OK,125,38,666,125,2014-08-01T09:05:00,11,20752482,182766
OK,120,40,666,120,2014-08-01T09:10:00,8,20752931,182766
OK,128,37,666,128,2014-08-01T09:15:00,10,20753380,182766
OK,129,37,666,129,2014-08-01T09:20:00,8,20753829,182766
OK,110,43,666,110,2014-08-01T09:25:00,13,20754278,182766
OK,112,42,666,112,2014-08-01T09:30:00,15,20754727,182766
OK,132,36,666,132,2014-08-01T09:35:00,9,20755176,182766
OK,128,37,666,128,2014-08-01T09:40:00,6,20755625,182766
OK,143,33,666,143,2014-08-01T09:45:00,10,20756074,182766
OK,138,34,666,138,2014-08-01T09:50:00,3,20756523,182766
OK,118,40,666,118,2014-08-01T09:55:00,12,20756972,182766
OK,120,40,666,120,2014-08-01T10:00:00,14,20757421,182766
OK,118,40,666,118,2014-08-01T10:05:00,7,20757870,182766
OK,102,47,666,102,2014-08-01T10:10:00,6,20758319,182766
OK,117,41,666,117,2014-08-01T10:15:00,10,20758768,182766
OK,117,41,666,117,2014-08-01T10:20:00,10,20759217,182766
OK,140,34,666,140,2014-08-01T10:25:00,10,20759666,182766
OK,115,41,666,115,2014-08-01T10:30:00,10,20760115,182766
OK,104,46,666,104,2014-08-01T10:35:00,7,20760564,182766
OK,120,40,666,120,2014-08-01T10:40:00,4,20761013,182766
OK,118,40,666,118,2014-08-01T10:45:00,8,20761462,182766
OK,116,41,666,116,2014-08-01T10:50:00,5,20761911,182766
OK,129,37,666,129,2014-08-01T10:55:00,3,20762360,182766
OK,126,38,666,126,2014-08-01T11:00:00,9,20762809,182766
OK,122,39,666,122,2014-08-01T11:05:00,10,20763258,182766
OK,120,40,666,120,2014-08-01T11:10:00,10,20763707,182766
OK,121,39,666,121,2014-08-01T11:15:00,9,20764156,182766
OK,99,48,666,99,2014-08-01T11:20:00,6,20764604,182766
OK,116,41,666,116,2014-08-01T11:25:00,11,20765053,182766
OK,123,39,666,123,2014-08-01T11:30:00,12,20765502,182766
OK,135,35,666,135,2014-08-01T11:35:00,8,20765951,182766
OK,104,46,666,104,2014-08-01T11:40:00,9,20766400,182766
OK,102,47,666,102,2014-08-01T11:45:00,12,20766849,182766
OK,126,38,666,126,2014-08-01T11:50:00,11,20767298,182766
OK,112,42,666,112,2014-08-01T11:55:00,10,20767747,182766
OK,114,42,666,114,2014-08-01T12:00:00,8,20768196,182766
OK,125,38,666,125,2014-08-01T12:05:00,10,20768645,182766
OK,109,44,666,109,2014-08-01T12:10:00,16,20769094,182766
OK,106,45,666,106,2014-08-01T12:15:00,11,20769543,182766
OK,108,44,666,108,2014-08-01T12:20:00,11,20769992,182766
OK,110,43,666,110,2014-08-01T12:25:00,13,20770441,182766
OK,140,34,666,140,2014-08-01T12:30:00,10,20770890,182766
OK,109,44,666,109,2014-08-01T12:35:00,6,20771339,182766
OK,115,41,666,115,2014-08-01T12:40:00,10,20771788,182766
OK,118,40,666,118,2014-08-01T12:45:00,18,20772237,182766
OK,119,40,666,119,2014-08-01T12:50:00,12,20772686,182766
OK,118,40,666,118,2014-08-01T12:55:00,6,20773135,182766
OK,101,47,666,101,2014-08-01T13:00:00,4,20773584,182766
OK,111,43,666,111,2014-08-01T13:05:00,6,20774033,182766
OK,111,43,666,111,2014-08-01T13:10:00,9,20774482,182766
OK,130,37,666,130,2014-08-01T13:15:00,4,20774931,182766
OK,147,32,666,147,2014-08-01T13:20:00,5,20775380,182766
OK,127,37,666,127,2014-08-01T13:25:00,8,20775829,182766
OK,103,46,666,103,2014-08-01T13:30:00,16,20776278,182766
OK,112,42,666,112,2014-08-01T13:35:00,10,20776727,182766
OK,120,40,666,120,2014-08-01T13:40:00,11,20777176,182766
OK,125,38,666,125,2014-08-01T13:45:00,13,20777625,182766
OK,116,41,666,116,2014-08-01T13:50:00,11,20778074,182766
OK,98,49,666,98,2014-08-01T13:55:00,9,20778523,182766
OK,98,49,666,98,2014-08-01T14:00:00,5,20778972,182766
OK,105,45,666,105,2014-08-01T14:05:00,4,20779421,182766
OK,114,42,666,114,2014-08-01T14:10:00,5,20779870,182766
OK,114,42,666,114,2014-08-01T14:15:00,3,20780319,182766
OK,152,31,666,152,2014-08-01T14:20:00,7,20780768,182766
OK,151,31,666,151,2014-08-01T14:25:00,15,20781217,182766
OK,102,47,666,102,2014-08-01T14:30:00,8,20781666,182766
OK,98,49,666,98,2014-08-01T14:35:00,2,20782115,182766
OK,116,41,666,116,2014-08-01T14:40:00,4,20782564,182766
OK,119,40,666,119,2014-08-01T14:45:00,8,20783013,182766
OK,126,38,666,126,2014-08-01T14:50:00,9,20783462,182766
OK,128,37,666,128,2014-08-01T14:55:00,14,20783911,182766
OK,124,38,666,124,2014-08-01T15:00:00,14,20784360,182766
OK,120,40,666,120,2014-08-01T15:05:00,9,20784809,182766
OK,131,36,666,131,2014-08-01T15:10:00,7,20785258,182766
OK,134,35,666,134,2014-08-01T15:15:00,6,20785707,182766
OK,107,44,666,107,2014-08-01T15:20:00,6,20786156,182766
OK,98,49,666,98,2014-08-01T15:25:00,4,20786605,182766
OK,109,44,666,109,2014-08-01T15:30:00,6,20787054,182766
OK,121,39,666,121,2014-08-01T15:35:00,5,20787503,182766
OK,114,42,666,114,2014-08-01T15:40:00,5,20787952,182766
OK,114,42,666,114,2014-08-01T15:45:00,7,20788401,182766
OK,120,40,666,120,2014-08-01T15:50:00,7,20788850,182766
OK,111,43,666,111,2014-08-01T15:55:00,7,20789299,182766
OK,110,43,666,110,2014-08-01T16:00:00,5,20789748,182766
OK,125,38,666,125,2014-08-01T16:05:00,12,20790197,182766
OK,125,38,666,125,2014-08-01T16:10:00,10,20790646,182766
OK,122,39,666,122,2014-08-01T16:15:00,6,20791095,182766
OK,118,40,666,118,2014-08-01T16:20:00,6,20791544,182766
OK,99,48,666,99,2014-08-01T16:25:00,3,20791993,182766
OK,108,44,666,108,2014-08-01T16:30:00,2,20792442,182766
OK,95,50,666,95,2014-08-01T16:35:00,7,20792891,182766
OK,95,50,666,95,2014-08-01T16:40:00,7,20793340,182766
OK,93,51,666,93,2014-08-01T16:45:00,7,20793789,182766
OK,93,51,666,93,2014-08-01T16:50:00,9,20794238,182766
OK,97,49,666,97,2014-08-01T16:55:00,6,20794687,182766
OK,120,40,666,120,2014-08-01T17:00:00,7,20795136,182766
OK,129,37,666,129,2014-08-01T17:05:00,8,20795585,182766
OK,137,35,666,137,2014-08-01T17:10:00,4,20796034,182766
OK,137,35,666,137,2014-08-01T17:15:00,0,20796483,182766
OK,81,59,666,81,2014-08-01T17:20:00,1,20796932,182766
OK,92,52,666,92,2014-08-01T17:25:00,6,20797381,182766
OK,89,54,666,89,2014-08-01T17:30:00,3,20797830,182766
OK,86,55,666,86,2014-08-01T17:35:00,1,20798279,182766
OK,92,52,666,92,2014-08-01T17:40:00,3,20798728,182766
OK,95,50,666,95,2014-08-01T17:45:00,3,20799177,182766
OK,106,45,666,106,2014-08-01T17:50:00,4,20799626,182766
OK,106,45,666,106,2014-08-01T17:55:00,3,20800075,182766
OK,127,37,666,127,2014-08-01T18:00:00,2,20800524,182766
OK,92,52,666,92,2014-08-01T18:05:00,2,20800973,182766
OK,74,65,666,74,2014-08-01T18:10:00,0,20801422,182766
OK,95,50,666,95,2014-08-01T18:15:00,1,20801871,182766
OK,124,38,666,124,2014-08-01T18:20:00,2,20802320,182766
OK,123,39,666,123,2014-08-01T18:25:00,4,20802769,182766
OK,87,55,666,87,2014-08-01T18:30:00,5,20803218,182766
OK,97,49,666,97,2014-08-01T18:35:00,1,20803667,182766
OK,94,51,666,94,2014-08-01T18:40:00,2,20804116,182766
OK,97,49,666,97,2014-08-01T18:45:00,6,20804565,182766
OK,95,50,666,95,2014-08-01T18:50:00,4,20805014,182766
OK,88,54,666,88,2014-08-01T18:55:00,2,20805463,182766
OK,92,52,666,92,2014-08-01T19:00:00,1,20805912,182766
OK,142,33,666,142,2014-08-01T19:05:00,2,20806361,182766
OK,96,50,666,96,2014-08-01T19:10:00,3,20806810,182766
OK,93,51,666,93,2014-08-01T19:15:00,3,20807259,182766
OK,103,46,666,103,2014-08-01T19:20:00,1,20807708,182766
OK,118,40,666,118,2014-08-01T19:25:00,2,20808157,182766
OK,119,40,666,119,2014-08-01T19:30:00,3,20808606,182766
OK,125,38,666,125,2014-08-01T19:35:00,1,20809055,182766
OK,101,47,666,101,2014-08-01T19:40:00,2,20809504,182766
OK,94,51,666,94,2014-08-01T19:45:00,3,20809953,182766
OK,94,51,666,94,2014-08-01T19:50:00,1,20810402,182766
OK,128,37,666,128,2014-08-01T19:55:00,2,20810851,182766
OK,120,40,666,120,2014-08-01T20:00:00,1,20811298,182766
OK,120,40,666,120,2014-08-01T20:05:00,1,20811471,182766
OK,120,40,666,120,2014-08-01T20:10:00,0,20811673,182766
OK,120,40,666,120,2014-08-01T20:15:00,0,20811880,182766
OK,113,42,666,113,2014-08-01T20:20:00,2,20812088,182766
OK,123,39,666,123,2014-08-01T20:25:00,5,20812308,182766
OK,113,42,666,113,2014-08-01T20:30:00,1,20812521,182766
OK,113,42,666,113,2014-08-01T20:35:00,0,20812731,182766
OK,95,50,666,95,2014-08-01T20:40:00,2,20812932,182766
OK,95,50,666,95,2014-08-01T20:45:00,2,20813139,182766
OK,127,37,666,127,2014-08-01T20:50:00,3,20813350,182766
OK,127,37,666,127,2014-08-01T20:55:00,5,20813580,182766
OK,88,54,666,88,2014-08-01T21:00:00,2,20813818,182766
OK,94,51,666,94,2014-08-01T21:05:00,1,20813995,182766
OK,101,47,666,101,2014-08-01T21:10:00,3,20814234,182766
OK,100,48,666,100,2014-08-01T21:15:00,5,20814431,182766
OK,98,49,666,98,2014-08-01T21:20:00,1,20814637,182766
OK,102,47,666,102,2014-08-01T21:25:00,2,20814867,182766
OK,102,47,666,102,2014-08-01T21:30:00,2,20815142,182766
OK,90,53,666,90,2014-08-01T21:35:00,1,20815376,182766
OK,90,53,666,90,2014-08-01T21:40:00,0,20815599,182766
OK,114,42,666,114,2014-08-01T21:45:00,2,20815836,182766
OK,111,43,666,111,2014-08-01T21:50:00,2,20816077,182766
OK,76,63,666,76,2014-08-01T21:55:00,1,20816312,182766
OK,76,63,666,76,2014-08-01T22:00:00,0,20816580,182766
OK,76,63,666,76,2014-08-01T22:05:00,0,20817029,182766
OK,110,43,666,110,2014-08-01T22:10:00,3,20817351,182766
OK,110,43,666,110,2014-08-01T22:15:00,3,20817780,182766
OK,110,43,666,110,2014-08-01T22:20:00,0,20818070,182766
OK,110,43,666,110,2014-08-01T22:25:00,0,20818386,182766
OK,110,43,666,110,2014-08-01T22:30:00,0,20818720,182766
OK,110,43,666,110,2014-08-01T22:35:00,0,20819025,182766
OK,107,44,666,107,2014-08-01T22:40:00,2,20819204,182766
OK,108,44,666,108,2014-08-01T22:45:00,3,20819492,182766
OK,85,56,666,85,2014-08-01T22:50:00,1,20819727,182766
OK,85,56,666,85,2014-08-01T22:55:00,0,20819980,182766
OK,85,56,666,85,2014-08-01T23:00:00,0,20820156,182766
OK,85,56,666,85,2014-08-01T23:05:00,0,20820409,182766
OK,85,56,666,85,2014-08-01T23:10:00,0,20820639,182766
OK,85,56,666,85,2014-08-01T23:15:00,0,20820827,182766
OK,85,56,666,85,2014-08-01T23:20:00,0,20821079,182766
OK,74,65,666,74,2014-08-01T23:25:00,2,20821256,182766
OK,74,65,666,74,2014-08-01T23:30:00,0,20821481,182766
OK,74,65,666,74,2014-08-01T23:35:00,0,20821726,182766
OK,74,65,666,74,2014-08-01T23:40:00,0,20821905,182766
OK,74,65,666,74,2014-08-01T23:45:00,0,20822128,182766
OK,74,65,666,74,2014-08-01T23:50:00,0,20822395,182766
OK,94,51,666,94,2014-08-01T23:55:00,2,20822721,182766
OK,110,43,666,110,2014-08-02T00:00:00,1,20823019,182766
OK,127,37,666,127,2014-08-02T00:05:00,1,20823468,182766
OK,127,37,666,127,2014-08-02T00:10:00,0,20823917,182766
OK,89,54,666,89,2014-08-02T00:15:00,2,20824366,182766
OK,91,52,666,91,2014-08-02T00:20:00,1,20824815,182766
OK,94,51,666,94,2014-08-02T00:25:00,1,20825264,182766
OK,94,51,666,94,2014-08-02T00:30:00,3,20825713,182766
OK,91,52,666,91,2014-08-02T00:35:00,2,20826162,182766
OK,91,52,666,91,2014-08-02T00:40:00,0,20826611,182766
OK,93,51,666,93,2014-08-02T00:45:00,1,20827060,182766
OK,92,52,666,92,2014-08-02T00:50:00,2,20827509,182766
OK,89,54,666,89,2014-08-02T00:55:00,2,20827958,182766
OK,70,68,666,70,2014-08-02T01:00:00,3,20828407,182766
OK,66,72,666,66,2014-08-02T01:05:00,0,20828856,182766
OK,115,41,666,115,2014-08-02T01:10:00,1,20829305,182766
OK,115,41,666,115,2014-08-02T01:15:00,1,20829754,182766
OK,115,41,666,115,2014-08-02T01:20:00,0,20830203,182766
OK,115,41,666,115,2014-08-02T01:25:00,0,20830652,182766
OK,115,41,666,115,2014-08-02T01:30:00,0,20831101,182766
OK,115,41,666,115,2014-08-02T01:35:00,0,20831550,182766
OK,115,41,666,115,2014-08-02T01:40:00,0,20831999,182766
OK,80,60,666,80,2014-08-02T01:45:00,1,20832448,182766
OK,80,60,666,80,2014-08-02T01:50:00,0,20832897,182766
OK,91,52,666,91,2014-08-02T01:55:00,2,20833346,182766
OK,91,52,666,91,2014-08-02T02:00:00,0,20833795,182766
OK,106,45,666,106,2014-08-02T02:05:00,1,20834244,182766
OK,106,45,666,106,2014-08-02T02:10:00,1,20834693,182766
OK,106,45,666,106,2014-08-02T02:15:00,0,20835142,182766
OK,106,45,666,106,2014-08-02T02:20:00,0,20835591,182766
OK,106,45,666,106,2014-08-02T02:25:00,0,20836040,182766
OK,106,45,666,106,2014-08-02T02:30:00,0,20836489,182766
OK,106,45,666,106,2014-08-02T02:35:00,0,20836938,182766
OK,106,45,666,106,2014-08-02T02:40:00,0,20837387,182766
OK,106,45,666,106,2014-08-02T02:45:00,0,20837836,182766
OK,69,69,666,69,2014-08-02T02:50:00,1,20838285,182766
OK,106,45,666,106,2014-08-02T02:55:00,0,20838734,182766
OK,106,45,666,106,2014-08-02T03:00:00,0,20839183,182766
OK,73,65,666,73,2014-08-02T03:05:00,0,20839632,182766
OK,73,65,666,73,2014-08-02T03:10:00,0,20840081,182766
OK,139,34,666,139,2014-08-02T03:15:00,1,20840530,182766
OK,79,60,666,79,2014-08-02T03:20:00,1,20840979,182766
OK,79,60,666,79,2014-08-02T03:25:00,1,20841428,182766
OK,79,60,666,79,2014-08-02T03:30:00,0,20841877,182766
OK,79,60,666,79,2014-08-02T03:35:00,0,20842326,182766
OK,88,54,666,88,2014-08-02T03:40:00,1,20842775,182766
OK,101,47,666,101,2014-08-02T03:45:00,1,20843224,182766
OK,119,40,666,119,2014-08-02T03:50:00,1,20843673,182766
OK,119,40,666,119,2014-08-02T03:55:00,0,20844122,182766
OK,119,40,666,119,2014-08-02T04:00:00,0,20844571,182766
OK,70,68,666,70,2014-08-02T04:05:00,1,20844702,182766
OK,70,68,666,70,2014-08-02T04:10:00,0,20845032,182766
OK,102,47,666,102,2014-08-02T04:15:00,1,20845212,182766
OK,102,47,666,102,2014-08-02T04:20:00,1,20845568,182766
OK,102,47,666,102,2014-08-02T04:25:00,0,20845936,182766
OK,102,47,666,102,2014-08-02T04:30:00,0,20846124,182766
OK,102,47,666,102,2014-08-02T04:35:00,0,20846491,182766
OK,155,31,666,155,2014-08-02T04:40:00,2,20846874,182766
OK,155,31,666,155,2014-08-02T04:45:00,2,20847133,182766
OK,86,55,666,86,2014-08-02T04:50:00,3,20847499,182766
OK,80,60,666,80,2014-08-02T04:55:00,4,20847856,182766
OK,75,64,666,75,2014-08-02T05:00:00,2,20848216,182766
OK,90,53,666,90,2014-08-02T05:05:00,0,20848381,182766
OK,90,53,666,90,2014-08-02T05:10:00,0,20848734,182766
OK,90,53,666,90,2014-08-02T05:15:00,0,20848926,182766
OK,90,53,666,90,2014-08-02T05:20:00,0,20849270,182766
OK,96,50,666,96,2014-08-02T05:25:00,1,20849582,182766
OK,93,51,666,93,2014-08-02T05:30:00,1,20849795,182766
OK,93,51,666,93,2014-08-02T05:35:00,5,20850067,182766
OK,91,52,666,91,2014-08-02T05:40:00,4,20850360,182766
OK,79,60,666,79,2014-08-02T05:45:00,0,20850661,182766
OK,79,60,666,79,2014-08-02T05:50:00,0,20851019,182766
OK,79,60,666,79,2014-08-02T05:55:00,0,20851273,182766
OK,80,60,666,80,2014-08-02T06:00:00,1,20851576,182766
OK,109,44,666,109,2014-08-02T06:05:00,3,20852025,182766
OK,110,43,666,110,2014-08-02T06:10:00,2,20852474,182766
OK,90,53,666,90,2014-08-02T06:15:00,2,20852923,182766
OK,87,55,666,87,2014-08-02T06:20:00,2,20853372,182766
OK,98,49,666,98,2014-08-02T06:25:00,2,20853821,182766
OK,97,49,666,97,2014-08-02T06:30:00,3,20854270,182766
OK,79,60,666,79,2014-08-02T06:35:00,1,20854719,182766
OK,79,60,666,79,2014-08-02T06:40:00,0,20855168,182766
OK,88,54,666,88,2014-08-02T06:45:00,2,20855617,182766
OK,84,57,666,84,2014-08-02T06:50:00,3,20856066,182766
OK,74,65,666,74,2014-08-02T06:55:00,1,20856515,182766
OK,74,65,666,74,2014-08-02T07:00:00,0,20856964,182766
OK,101,47,666,101,2014-08-02T07:05:00,2,20857413,182766
OK,96,50,666,96,2014-08-02T07:10:00,2,20857862,182766
OK,125,38,666,125,2014-08-02T07:15:00,4,20858311,182766
OK,110,43,666,110,2014-08-02T07:20:00,5,20858760,182766
OK,110,43,666,110,2014-08-02T07:25:00,8,20859209,182766
OK,109,44,666,109,2014-08-02T07:30:00,8,20859658,182766
OK,122,39,666,122,2014-08-02T07:35:00,5,20860107,182766
OK,128,37,666,128,2014-08-02T07:40:00,7,20860556,182766
OK,131,36,666,131,2014-08-02T07:45:00,8,20861005,182766
OK,109,44,666,109,2014-08-02T07:50:00,10,20861454,182766
OK,106,45,666,106,2014-08-02T07:55:00,12,20861903,182766
OK,104,46,666,104,2014-08-02T08:00:00,10,20862352,182766
OK,121,39,666,121,2014-08-02T08:05:00,9,20862801,182766
OK,103,46,666,103,2014-08-02T08:10:00,9,20863250,182766
OK,97,49,666,97,2014-08-02T08:15:00,8,20863699,182766
OK,97,49,666,97,2014-08-02T08:20:00,11,20864148,182766
OK,116,41,666,116,2014-08-02T08:25:00,11,20864597,182766
OK,116,41,666,116,2014-08-02T08:30:00,5,20865046,182766
OK,93,51,666,93,2014-08-02T08:35:00,5,20865495,182766
OK,107,44,666,107,2014-08-02T08:40:00,8,20865944,182766
OK,110,43,666,110,2014-08-02T08:45:00,7,20866393,182766
OK,128,37,666,128,2014-08-02T08:50:00,7,20866842,182766
OK,109,44,666,109,2014-08-02T08:55:00,12,20867291,182766
OK,109,44,666,109,2014-08-02T09:00:00,10,20867740,182766
OK,113,42,666,113,2014-08-02T09:05:00,6,20868189,182766
OK,106,45,666,106,2014-08-02T09:10:00,11,20868638,182766
OK,100,48,666,100,2014-08-02T09:15:00,9,20869087,182766
OK,110,43,666,110,2014-08-02T09:20:00,10,20869536,182766
OK,116,41,666,116,2014-08-02T09:25:00,13,20869985,182766
OK,124,38,666,124,2014-08-02T09:30:00,14,20870434,182766
OK,113,42,666,113,2014-08-02T09:35:00,9,20870883,182766
OK,110,43,666,110,2014-08-02T09:40:00,6,20871332,182766
OK,124,38,666,124,2014-08-02T09:45:00,13,20871781,182766
OK,123,39,666,123,2014-08-02T09:50:00,14,20872230,182766
OK,122,39,666,122,2014-08-02T09:55:00,15,20872679,182766
OK,114,42,666,114,2014-08-02T10:00:00,16,20873128,182766
OK,114,42,666,114,2014-08-02T10:05:00,10,20873577,182766
OK,118,40,666,118,2014-08-02T10:10:00,3,20874026,182766
OK,104,46,666,104,2014-08-02T10:15:00,8,20874475,182766
OK,109,44,666,109,2014-08-02T10:20:00,10,20874924,182766
OK,133,36,666,133,2014-08-02T10:25:00,11,20875373,182766
OK,134,35,666,134,2014-08-02T10:30:00,7,20875822,182766
OK,127,37,666,127,2014-08-02T10:35:00,7,20876271,182766
OK,114,42,666,114,2014-08-02T10:40:00,6,20876720,182766
OK,148,32,666,148,2014-08-02T10:45:00,7,20877169,182766
OK,137,35,666,137,2014-08-02T10:50:00,7,20877618,182766
OK,136,35,666,136,2014-08-02T10:55:00,9,20878067,182766
OK,141,34,666,141,2014-08-02T11:00:00,13,20878516,182766
OK,128,37,666,128,2014-08-02T11:05:00,11,20878965,182766
OK,121,39,666,121,2014-08-02T11:10:00,2,20879414,182766
OK,126,38,666,126,2014-08-02T11:15:00,6,20879863,182766
OK,133,36,666,133,2014-08-02T11:20:00,16,20880312,182766
OK,133,36,666,133,2014-08-02T11:25:00,10,20880761,182766
OK,100,48,666,100,2014-08-02T11:30:00,4,20881210,182766
OK,136,35,666,136,2014-08-02T11:35:00,4,20881659,182766
OK,133,36,666,133,2014-08-02T11:40:00,3,20882108,182766
OK,125,38,666,125,2014-08-02T11:45:00,5,20882557,182766
OK,137,35,666,137,2014-08-02T11:50:00,5,20883006,182766
OK,122,39,666,122,2014-08-02T11:55:00,2,20883455,182766
OK,109,44,666,109,2014-08-02T12:00:00,10,20883904,182766
OK,122,39,666,122,2014-08-02T12:05:00,8,20884353,182766
OK,145,33,666,145,2014-08-02T12:10:00,3,20884802,182766
OK,111,43,666,111,2014-08-02T12:15:00,3,20885251,182766
OK,98,49,666,98,2014-08-02T12:20:00,5,20885700,182766
OK,108,44,666,108,2014-08-02T12:25:00,6,20886149,182766
OK,138,34,666,138,2014-08-02T12:30:00,6,20886598,182766
OK,128,37,666,128,2014-08-02T12:35:00,4,20887047,182766
OK,104,46,666,104,2014-08-02T12:40:00,6,20887496,182766
OK,110,43,666,110,2014-08-02T12:45:00,8,20887945,182766
OK,114,42,666,114,2014-08-02T12:50:00,7,20888394,182766
OK,101,47,666,101,2014-08-02T12:55:00,5,20888843,182766
OK,126,38,666,126,2014-08-02T13:00:00,6,20889292,182766
OK,114,42,666,114,2014-08-02T13:05:00,8,20889741,182766
OK,109,44,666,109,2014-08-02T13:10:00,5,20890190,182766
OK,98,49,666,98,2014-08-02T13:15:00,5,20890639,182766
OK,102,47,666,102,2014-08-02T13:20:00,8,20891088,182766
OK,104,46,666,104,2014-08-02T13:25:00,6,20891537,182766
OK,114,42,666,114,2014-08-02T13:30:00,4,20891986,182766
OK,102,47,666,102,2014-08-02T13:35:00,2,20892435,182766
OK,113,42,666,113,2014-08-02T13:40:00,10,20892884,182766
OK,115,41,666,115,2014-08-02T13:45:00,5,20893333,182766
OK,89,54,666,89,2014-08-02T13:50:00,4,20893782,182766
OK,99,48,666,99,2014-08-02T13:55:00,10,20894231,182766
OK,114,42,666,114,2014-08-02T14:00:00,11,20894680,182766
OK,124,38,666,124,2014-08-02T14:05:00,5,20895129,182766
OK,106,45,666,106,2014-08-02T14:10:00,4,20895578,182766
OK,117,41,666,117,2014-08-02T14:15:00,5,20896027,182766
OK,118,40,666,118,2014-08-02T14:20:00,6,20896476,182766
OK,119,40,666,119,2014-08-02T14:25:00,2,20896925,182766
OK,136,35,666,136,2014-08-02T14:30:00,4,20897374,182766
OK,116,41,666,116,2014-08-02T14:35:00,8,20897823,182766
OK,105,45,666,105,2014-08-02T14:40:00,4,20898272,182766
OK,158,30,666,158,2014-08-02T14:45:00,2,20898721,182766
OK,125,38,666,125,2014-08-02T14:50:00,2,20899170,182766
OK,84,57,666,84,2014-08-02T14:55:00,3,20899619,182766
OK,96,50,666,96,2014-08-02T15:00:00,7,20900068,182766
OK,93,51,666,93,2014-08-02T15:05:00,4,20900517,182766
OK,121,39,666,121,2014-08-02T15:10:00,2,20900966,182766
OK,118,40,666,118,2014-08-02T15:15:00,3,20901415,182766
OK,108,44,666,108,2014-08-02T15:20:00,4,20901864,182766
OK,105,45,666,105,2014-08-02T15:25:00,5,20902313,182766
OK,101,47,666,101,2014-08-02T15:30:00,6,20902762,182766
OK,101,47,666,101,2014-08-02T15:35:00,5,20903211,182766
OK,115,41,666,115,2014-08-02T15:40:00,2,20903660,182766
OK,101,47,666,101,2014-08-02T15:45:00,4,20904109,182766
OK,101,47,666,101,2014-08-02T15:50:00,4,20904558,182766
OK,117,41,666,117,2014-08-02T15:55:00,7,20905007,182766
OK,105,45,666,105,2014-08-02T16:00:00,6,20905456,182766
OK,104,46,666,104,2014-08-02T16:05:00,3,20905905,182766
OK,105,45,666,105,2014-08-02T16:10:00,3,20906354,182766
OK,130,37,666,130,2014-08-02T16:15:00,2,20906803,182766
OK,130,37,666,130,2014-08-02T16:20:00,0,20907252,182766
OK,126,38,666,126,2014-08-02T16:25:00,2,20907701,182766
OK,129,37,666,129,2014-08-02T16:30:00,5,20908150,182766
OK,101,47,666,101,2014-08-02T16:35:00,1,20908599,182766
OK,101,47,666,101,2014-08-02T16:40:00,2,20909048,182766
OK,93,51,666,93,2014-08-02T16:45:00,3,20909497,182766
OK,131,36,666,131,2014-08-02T16:50:00,3,20909946,182766
OK,131,36,666,131,2014-08-02T16:55:00,3,20910395,182766
OK,94,51,666,94,2014-08-02T17:00:00,5,20910844,182766
OK,94,51,666,94,2014-08-02T17:05:00,3,20911293,182766
OK,95,50,666,95,2014-08-02T17:10:00,1,20911742,182766
OK,90,53,666,90,2014-08-02T17:15:00,2,20912191,182766
OK,93,51,666,93,2014-08-02T17:20:00,3,20912640,182766
OK,135,35,666,135,2014-08-02T17:25:00,4,20913089,182766
OK,112,42,666,112,2014-08-02T17:30:00,6,20913538,182766
OK,107,44,666,107,2014-08-02T17:35:00,2,20913987,182766
OK,93,51,666,93,2014-08-02T17:40:00,4,20914436,182766
OK,96,50,666,96,2014-08-02T17:45:00,5,20914885,182766
OK,114,42,666,114,2014-08-02T17:50:00,0,20915334,182766
OK,114,42,666,114,2014-08-02T17:55:00,0,20915783,182766
OK,114,42,666,114,2014-08-02T18:00:00,0,20916232,182766
OK,114,42,666,114,2014-08-02T18:05:00,0,20916681,182766
OK,92,52,666,92,2014-08-02T18:10:00,1,20917130,182766
OK,92,52,666,92,2014-08-02T18:15:00,1,20917579,182766
OK,102,47,666,102,2014-08-02T18:20:00,1,20918028,182766
OK,98,49,666,98,2014-08-02T18:25:00,3,20918477,182766
OK,98,49,666,98,2014-08-02T18:30:00,3,20918926,182766
OK,124,38,666,124,2014-08-02T18:35:00,1,20919375,182766
OK,124,38,666,124,2014-08-02T18:40:00,0,20919824,182766
OK,83,57,666,83,2014-08-02T18:45:00,1,20920273,182766
OK,83,57,666,83,2014-08-02T18:50:00,3,20920722,182766
OK,99,48,666,99,2014-08-02T18:55:00,2,20921171,182766